Wind_Speed
7 7 7 7 7 7 6 6 6 6 6 6 6 6 6 7 7 7 8 8 9 9 10 10 11 11 11 11 11 11 10 11 8 1 3 3 3 4 5 5 6 7 11 14 16 17 17 14 13 13 11 11 10 9 11 9 8 8 6 6 6 6 3 2 0 2 4 3 6 9 10 9 10 9 10 7 3 1 2 4 5 6 2 2 5 11 18 21
7 7 7 8 8 8 8 7 7 7 7 7 7 6 6 6 7 7 8 8 9 10 10 10 10 11 11 12 12 12 11 10 4 5 6 3 2 3 3 5 8 8 11 14 17 18 17 16 15 15 12 10 9 9 11 10 10 9 5 6 7 2 3 4 3 4 4 6 8 9 9 10 9 9 11 9 4 3 4 6 7 7 5 5 8 13 17 20
6 7 7 7 8 8 8 8 8 7 7 8 8 7 7 7 7 8 8 9 9 9 9 9 10 11 11 12 12 12 12 7 3 6 4 2 1 2 3 5 9 9 12 14 15 15 14 14 15 14 11 9 8 9 10 10 10 10 6 7 4 1 3 2 1 2 4 7 9 10 10 10 8 8 10 10 9 5 4 5 6 9 9 9 11 14 17 19
6 7 7 8 8 8 8 9 8 8 8 8 8 8 8 8 8 8 8 9 9 9 9 9 10 11 11 11 11 12 12 5 5 5 3 3 3 2 2 7 11 11 13 15 15 12 10 12 14 13 10 8 8 9 10 10 9 7 7 7 1 2 2 2 1 3 6 8 9 11 11 10 8 10 10 10 9 2 3 2 4 7 11 13 14 16 17 19
7 7 8 8 8 8 8 9 9 9 8 7 8 8 8 8 8 9 9 9 10 9 9 9 9 11 11 11 11 11 11 3 6 4 2 1 3 1 3 9 13 12 14 16 14 11 11 13 13 11 9 7 9 9 9 12 9 5 7 8 2 1 3 1 2 5 7 9 9 11 10 10 11 11 10 9 8 3 3 2 2 5 10 14 16 17 19 20
7 7 8 8 8 8 8 9 9 9 9 8 8 8 8 8 8 9 9 10 10 10 10 9 10 10 10 11 11 10 8 3 1 4 4 2 2 2 6 10 12 13 14 14 13 12 12 14 13 11 9 7 9 9 8 12 11 7 7 8 7 7 7 4 7 8 9 11 10 10 10 11 13 12 9 9 10 7 5 4 3 4 9 14 16 18 20 22
8 8 8 9 9 9 9 9 10 10 10 9 9 9 9 8 8 8 9 10 10 10 10 9 10 10 10 10 10 7 6 5 4 7 5 4 2 4 7 9 11 13 14 13 13 13 13 14 13 10 8 6 8 9 7 11 12 10 6 5 8 8 9 9 10 10 10 11 11 12 12 12 13 11 10 12 11 9 7 6 5 5 9 13 16 18 20 21
8 8 9 9 9 10 10 10 10 10 10 10 10 10 10 9 9 9 9 10 10 10 10 9 10 9 10 8 8 7 7 4 4 4 2 4 5 6 8 10 11 12 12 12 11 11 12 13 12 9 8 5 6 9 9 10 12 12 9 5 7 8 8 10 10 11 11 11 11 12 12 12 11 11 13 15 10 6 6 4 5 7 11 13 15 17 19 20
8 9 9 9 10 10 11 11 11 11 11 11 11 11 11 11 10 9 9 10 10 10 10 9 9 9 9 6 6 7 3 3 3 2 1 5 7 8 8 8 10 10 10 10 8 10 10 11 11 7 5 3 6 9 10 10 7 9 12 8 8 9 9 10 11 11 11 11 10 11 13 11 9 9 11 10 4 3 3 3 6 9 12 13 14 15 18 20
8 9 9 10 10 10 11 11 11 11 11 11 11 11 12 12 12 11 10 11 11 11 10 9 9 9 8 6 6 5 1 1 2 1 3 5 8 10 9 7 8 9 8 7 7 9 8 7 8 6 4 3 7 7 10 9 2 3 8 8 9 10 9 10 11 11 10 11 11 12 12 9 7 8 6 1 3 2 2 4 7 9 11 12 13 14 16 18
8 9 10 10 10 10 10 11 11 11 11 10 11 11 12 12 12 12 12 12 12 11 10 9 9 9 7 6 7 5 2 3 1 4 4 7 10 11 10 8 9 7 6 6 6 8 7 4 7 7 3 4 7 7 10 9 3 3 5 7 9 10 9 10 11 10 9 9 10 11 11 10 9 10 8 1 3 2 3 5 7 9 9 11 11 12 15 15
9 10 10 11 11 10 10 10 10 10 10 10 11 11 11 12 12 12 13 13 13 12 11 10 9 8 7 8 10 8 6 5 5 6 5 9 12 12 10 9 9 7 5 4 5 7 6 4 8 9 2 4 7 5 7 8 5 6 6 7 8 9 10 10 9 8 8 8 7 7 10 10 10 13 8 1 3 3 4 7 7 8 8 10 11 12 13 12
10 11 11 12 12 11 10 10 10 10 10 10 11 11 11 12 12 12 13 14 14 13 12 11 10 8 7 7 9 8 5 5 7 8 7 8 9 10 11 10 10 8 6 4 3 5 6 6 9 8 2 5 6 2 3 7 6 6 7 7 6 7 7 6 5 6 7 5 4 6 7 7 10 13 4 3 2 4 6 8 7 8 8 9 10 12 13 13
12 12 12 12 12 12 11 10 10 10 10 10 11 11 12 12 12 12 12 13 13 13 13 11 10 7 5 6 9 10 9 8 8 10 10 9 8 7 9 9 9 9 8 5 4 5 7 7 7 6 5 5 3 2 3 6 7 5 5 5 5 6 3 7 4 4 5 2 4 9 7 5 7 8 3 3 2 5 7 9 9 9 8 8 9 12 14 15
12 13 13 13 12 12 10 10 10 9 9 10 11 12 12 12 12 11 12 12 12 13 12 10 8 5 6 8 10 10 9 10 9 10 12 12 11 8 9 9 7 9 9 6 5 5 7 9 8 6 7 4 2 5 6 5 6 5 5 5 5 5 2 7 5 2 1 3 4 8 6 7 6 6 5 2 2 4 7 9 9 10 8 8 9 13 14 14
13 13 13 13 13 12 10 9 9 9 9 11 11 12 12 12 11 11 11 11 11 11 9 7 5 3 6 5 4 3 3 6 5 6 8 13 13 9 9 9 7 9 8 7 6 4 6 10 7 6 6 6 6 6 5 5 6 6 6 5 4 4 3 4 7 4 2 1 4 6 6 6 4 5 3 1 2 5 7 8 9 10 8 7 9 13 13 13
13 13 13 12 12 11 10 9 9 9 9 10 11 12 11 11 11 11 10 10 10 8 6 5 2 3 6 4 3 2 6 8 7 7 5 10 15 12 11 10 9 10 8 7 6 5 8 10 6 5 5 6 6 5 6 7 6 6 6 6 4 5 4 2 5 6 2 3 4 5 6 8 6 4 4 2 3 6 7 8 9 9 9 9 10 13 13 14
13 13 13 12 12 11 10 9 9 8 9 10 10 10 10 10 11 11 11 9 6 4 5 5 2 3 6 6 4 6 10 9 7 5 4 8 14 14 11 10 10 12 10 8 7 6 9 9 6 5 6 7 6 6 8 4 3 5 5 5 4 5 6 4 2 3 1 5 6 7 7 10 11 9 7 5 5 7 8 8 7 9 9 9 11 13 15 15
13 12 12 12 12 11 10 9 9 8 8 9 8 8 8 9 10 9 8 6 3 3 4 4 7 4 1 3 4 7 10 9 5 4 4 7 13 14 10 10 12 13 10 8 8 8 8 6 6 6 7 9 9 10 9 2 3 2 3 4 4 4 5 4 2 1 3 6 8 9 10 10 12 11 9 7 7 8 9 8 8 10 9 10 11 13 15 15
13 12 12 12 11 11 10 9 8 7 8 8 6 6 6 6 5 3 3 6 9 11 11 7 10 11 6 1 3 4 7 8 4 4 5 8 14 15 12 12 13 11 9 7 7 8 8 6 7 9 9 11 12 11 8 3 2 4 4 5 5 6 5 2 2 3 3 6 8 9 11 12 13 13 12 9 7 9 11 11 11 11 10 11 12 14 16 17
12 11 11 11 10 10 9 9 7 7 7 5 3 3 4 4 3 2 5 8 11 12 15 13 13 14 10 6 5 4 5 6 6 6 6 9 15 15 14 15 11 9 8 6 7 7 7 7 8 11 8 7 9 9 5 3 4 6 7 7 6 7 5 2 2 4 2 4 7 7 9 11 13 14 14 11 9 11 13 13 13 13 12 12 13 15 18 18
12 11 11 11 10 9 9 9 7 6 6 4 2 2 2 2 3 5 7 8 10 11 13 13 11 13 14 13 12 10 6 6 8 9 8 12 16 14 14 15 11 8 9 7 6 6 7 9 11 8 4 4 6 6 7 6 7 7 6 7 7 5 3 2 3 3 3 3 6 6 8 9 12 15 15 13 11 12 15 15 14 14 14 14 15 16 18 19
11 11 11 10 9 9 9 8 6 6 6 4 4 4 4 5 5 6 6 7 10 8 7 8 8 10 11 12 13 15 13 11 11 13 13 14 16 14 13 14 12 8 9 10 8 7 6 7 9 7 6 6 7 7 8 7 6 7 6 6 6 3 2 2 4 5 3 5 7 9 8 9 12 14 14 15 16 16 16 15 13 13 14 15 16 17 19 21
11 11 11 10 8 8 9 8 6 6 5 5 6 7 7 7 5 6 5 7 7 3 3 4 4 5 5 5 7 14 16 14 12 13 17 17 14 13 12 14 13 9 9 12 12 10 5 1 3 8 9 9 9 8 8 7 6 8 8 8 7 5 6 6 4 3 6 8 9 9 8 8 11 13 13 13 15 16 14 12 12 13 15 15 16 18 20 22
11 11 10 10 8 8 9 8 6 5 5 4 6 8 8 5 4 5 3 6 4 3 3 3 2 2 3 1 4 10 11 12 13 11 17 20 16 11 11 13 11 9 11 13 11 10 6 5 6 8 10 11 10 8 9 8 6 7 9 10 10 10 10 10 7 5 7 7 8 6 7 6 7 10 10 8 10 13 12 10 12 14 15 16 17 19 21 22
11 11 10 10 8 7 7 5 4 4 3 4 6 8 7 4 3 3 2 5 2 4 4 3 3 1 1 2 6 8 6 8 11 11 14 18 17 11 8 10 9 8 9 10 7 6 4 7 8 9 9 11 10 8 9 9 8 6 4 6 9 10 9 8 6 5 6 4 5 5 7 5 4 6 8 7 8 11 10 8 9 10 12 15 17 19 21 22
11 11 11 10 9 8 4 2 5 4 2 5 7 7 4 2 2 2 3 4 2 3 2 3 3 3 3 2 8 8 2 5 8 11 14 16 17 13 8 9 9 6 4 6 4 4 6 8 8 8 8 9 8 7 8 9 9 4 4 2 6 5 5 5 6 7 5 4 3 8 7 6 7 6 6 7 8 11 10 6 3 4 7 10 13 16 19 21
11 11 10 10 10 9 6 5 5 5 6 7 7 6 4 2 2 2 4 3 2 2 1 3 2 2 4 2 10 8 1 3 5 10 13 14 15 13 11 10 10 8 9 7 4 4 8 11 10 11 10 8 7 7 6 9 9 3 4 1 4 3 4 4 6 6 4 4 5 9 8 7 8 5 6 7 10 12 8 3 2 2 4 6 9 12 16 19
11 10 10 10 10 9 7 5 3 6 9 9 7 5 4 2 2 3 5 3 2 2 1 2 2 1 2 2 9 10 6 3 0 7 12 14 14 10 8 10 11 9 11 11 7 3 5 6 8 11 10 8 9 10 8 10 8 2 2 3 4 4 4 4 5 5 4 4 8 8 8 7 7 6 7 8 8 7 2 3 4 6 5 4 5 8 12 15
11 10 10 10 9 8 6 4 3 7 8 8 8 5 3 3 3 5 4 1 1 3 2 2 2 1 3 3 7 9 9 4 2 8 12 13 15 10 4 5 9 7 8 10 9 2 6 2 3 7 8 6 7 7 7 9 7 1 3 7 6 5 4 4 5 4 4 7 10 8 8 7 7 7 5 2 1 2 3 3 5 7 7 3 3 5 8 10
10 10 10 10 9 6 3 1 3 6 7 8 7 6 5 3 3 4 3 1 0 2 3 2 1 2 4 3 3 6 8 6 5 10 10 10 13 11 7 6 7 7 6 8 9 6 7 5 4 6 8 6 4 3 5 7 7 4 6 7 5 5 4 4 5 4 6 8 5 3 6 8 8 7 2 3 3 4 5 5 7 7 6 2 2 5 6 7
9 9 10 10 8 4 1 3 4 6 9 9 9 9 6 4 4 4 2 1 1 1 2 1 2 4 4 3 2 4 6 7 8 10 9 10 10 10 10 8 7 8 7 7 8 7 7 8 7 8 9 8 7 5 6 5 6 7 7 6 7 6 5 6 7 6 7 6 3 3 4 6 8 6 2 5 3 5 6 6 8 7 5 1 3 6 7 8
8 9 9 8 5 2 3 4 5 8 10 10 10 9 6 4 3 2 1 1 1 3 3 3 5 6 5 4 2 3 5 6 9 9 9 11 10 10 12 10 10 10 6 6 8 6 6 9 11 10 9 11 11 7 6 7 8 9 8 7 8 7 6 7 7 6 8 4 4 3 3 6 9 2 7 7 6 7 6 7 8 7 5 3 4 6 7 8
7 7 6 4 2 1 3 4 5 10 12 11 9 7 5 5 1 1 1 0 3 3 2 4 6 5 4 2 2 1 3 5 9 8 8 10 9 9 10 10 12 10 4 5 6 6 7 6 9 11 7 11 14 11 8 6 7 10 9 8 8 7 6 7 5 6 7 3 4 4 4 6 6 1 5 6 6 7 7 9 10 8 7 6 5 7 8 7
5 4 2 2 1 1 3 5 7 12 14 11 8 6 5 5 1 1 1 1 3 3 3 3 5 5 4 3 2 0 1 2 7 8 7 9 8 8 9 9 12 11 6 6 4 5 8 4 6 8 4 8 14 14 12 8 5 7 7 7 7 7 6 4 2 2 4 3 3 4 4 5 1 4 4 4 7 8 10 11 10 8 8 8 8 9 10 9
2 1 2 2 1 1 1 6 10 15 15 10 7 6 4 1 1 1 1 3 2 4 6 4 3 4 3 4 2 2 1 2 7 8 6 7 7 7 8 8 11 12 9 6 3 4 7 3 6 8 5 7 10 10 12 11 5 4 6 7 5 5 6 5 1 2 1 6 4 3 5 6 3 4 4 5 6 8 9 10 10 9 9 9 9 9 9 9
2 3 5 4 4 4 4 7 12 15 14 9 6 4 1 1 2 2 3 3 1 3 7 3 1 2 2 3 2 3 2 4 7 7 6 6 4 4 7 6 8 13 12 8 4 4 5 3 6 8 8 8 5 5 9 11 7 4 5 5 3 2 5 6 5 4 5 7 5 4 6 7 5 2 4 4 5 7 8 8 9 9 10 10 10 10 10 9
4 7 7 6 6 8 8 8 12 13 10 7 5 1 1 1 1 1 2 2 2 2 5 2 1 2 1 1 1 2 1 4 7 7 6 7 3 0 4 5 6 9 11 10 6 3 4 5 6 6 5 7 7 5 7 9 11 8 4 3 3 4 6 6 6 6 6 7 5 4 6 6 5 1 4 4 4 7 7 7 7 7 8 8 8 9 9 9
8 9 7 6 7 8 7 8 9 9 7 6 4 2 1 2 2 1 1 2 2 3 3 1 0 1 1 2 1 2 2 2 5 6 5 6 4 0 2 2 4 5 7 9 7 4 4 6 4 5 5 5 7 7 7 8 10 9 6 5 5 4 4 4 5 5 6 7 6 5 5 2 2 3 4 4 4 5 6 6 6 6 7 7 7 7 7 6
10 8 5 7 7 6 5 5 6 7 5 3 2 2 2 2 2 3 2 2 3 3 2 1 1 1 1 2 2 1 2 2 2 4 4 4 5 2 1 1 1 1 3 8 8 5 4 5 4 5 7 6 6 5 6 5 7 8 7 8 7 4 3 4 5 5 5 6 5 5 5 0 4 4 3 4 4 4 5 5 5 4 5 5 6 6 5 4
10 5 5 9 7 4 3 3 4 4 2 2 1 2 2 0 1 3 2 2 4 3 2 4 3 3 3 2 1 2 3 3 1 2 3 4 4 2 2 3 3 1 2 6 8 6 4 5 6 5 6 7 4 3 1 2 2 5 6 8 8 7 5 6 7 6 5 6 5 5 5 1 4 3 2 3 2 3 4 5 5 5 5 5 6 5 5 4
9 3 6 10 7 3 1 2 3 1 2 2 1 2 1 2 1 1 2 3 4 3 3 4 4 3 3 2 2 4 3 3 1 1 2 1 2 2 4 4 4 3 3 4 3 1 1 3 6 7 6 4 4 7 4 1 1 3 5 6 6 7 6 7 7 5 5 6 4 6 6 1 4 2 2 3 4 6 5 5 6 7 7 7 7 7 6 6
7 5 8 10 7 3 2 2 4 2 1 3 1 1 1 1 1 1 2 3 3 3 3 3 3 3 1 2 4 4 3 3 1 0 1 1 4 6 7 5 2 4 4 3 2 2 1 4 6 7 6 3 5 6 3 2 3 5 3 2 4 6 6 6 6 3 4 6 4 6 6 1 3 2 3 5 6 8 8 7 6 6 7 7 7 8 8 7
7 8 8 9 6 2 2 1 3 2 3 3 2 3 2 1 1 1 1 1 1 2 3 3 1 2 1 2 4 5 3 2 1 1 1 1 3 5 8 7 2 0 1 1 1 3 4 5 6 6 7 7 6 6 6 5 5 3 1 1 2 5 5 5 5 4 6 7 6 7 4 2 3 3 5 6 7 8 9 9 8 7 7 7 7 8 7 7
9 8 6 7 5 1 0 1 1 2 4 4 3 3 3 3 1 2 1 1 1 1 2 1 1 2 3 3 4 3 2 2 1 1 1 1 3 4 6 8 6 6 6 6 2 4 3 1 3 6 7 8 6 4 4 3 4 2 3 2 3 3 4 4 5 6 7 7 8 8 3 3 4 5 6 5 5 7 8 9 9 9 8 7 7 7 6 7
7 5 5 6 5 2 2 2 1 1 3 3 3 3 2 3 4 1 1 0 2 1 1 1 1 3 3 3 4 3 1 1 2 1 1 1 2 4 6 6 7 11 10 10 6 2 3 1 4 6 7 5 1 2 3 3 2 2 2 3 4 4 3 4 5 5 4 4 6 5 2 7 8 6 6 5 5 6 6 8 9 9 9 8 8 7 7 8
5 4 4 4 4 3 3 3 1 1 2 1 1 2 1 2 4 3 1 1 2 1 1 2 2 2 2 3 3 2 2 1 1 1 2 3 2 2 4 4 7 11 8 9 11 5 3 4 7 10 9 5 3 4 5 5 3 2 4 4 5 6 3 3 3 2 5 4 3 3 3 4 7 6 6 6 7 7 7 8 9 9 8 8 7 8 9 9
2 3 3 4 3 2 3 3 2 3 3 1 0 1 2 2 3 2 1 1 2 1 1 1 2 2 2 3 3 3 3 2 1 2 2 4 4 1 2 5 7 9 5 6 10 6 4 4 5 8 6 1 3 3 3 4 4 6 7 7 7 7 6 3 3 5 6 2 1 4 5 5 7 7 8 8 8 9 9 9 9 9 8 8 7 8 10 11
3 4 4 3 2 3 5 5 4 4 3 1 1 2 2 3 3 2 1 2 2 1 1 0 2 2 3 3 3 2 2 2 1 4 4 5 4 2 0 4 6 9 8 5 7 6 4 3 3 6 4 4 4 4 4 4 5 8 9 8 7 6 6 6 6 6 5 4 5 4 7 10 8 7 9 9 9 11 10 10 10 9 8 8 9 9 11 11
5 4 5 5 4 6 7 5 4 4 3 1 2 3 2 2 3 3 1 0 2 1 1 1 2 3 3 3 2 1 3 3 2 4 5 4 2 3 3 1 2 7 8 5 4 5 3 1 3 4 4 4 4 5 6 6 7 9 10 10 8 5 5 6 6 6 4 4 5 4 6 6 6 6 8 9 9 10 11 10 10 9 8 9 11 11 11 11
5 6 8 7 5 4 4 4 3 3 3 2 1 2 2 2 4 2 2 2 1 1 2 2 2 1 0 1 1 2 4 3 3 3 4 4 3 4 3 2 3 4 4 4 2 2 2 1 2 5 5 4 6 8 8 7 7 8 9 11 10 7 6 4 5 6 5 5 3 1 2 3 4 6 7 9 10 10 11 11 10 10 10 10 11 12 11 11
6 7 9 7 3 2 3 3 3 2 2 2 2 2 2 2 3 1 1 2 0 1 3 3 3 2 2 2 2 4 3 4 5 4 4 4 4 4 3 4 5 4 1 2 0 1 2 2 2 4 4 5 9 10 9 7 4 2 5 7 7 6 7 5 3 7 8 7 4 2 3 4 5 5 5 7 9 9 10 11 9 9 10 10 11 11 11 12
Wind_Direction
333 332 334 336 335 335 333 332 332 329 329 333 332 332 334 334 334 335 337 336 333 334 338 342 341 337 339 341 341 343 345 342 334 321 133 134 196 234 245 217 192 185 177 168 175 178 168 168 171 170 171 175 190 184 181 193 192 201 221 228 232 234 230 78 72 7 352 352 4 342 346 336 330 349 350 331 279 320 254 206 180 181 154 52 105 148 168 159
328 329 332 334 335 333 328 328 327 325 325 327 325 323 324 323 325 325 328 326 324 327 331 338 336 332 336 338 341 343 346 349 5 118 119 128 193 240 256 195 184 181 170 168 176 175 169 173 171 171 176 177 184 175 179 189 196 216 228 231 238 253 36 45 29 25 348 331 340 328 333 328 324 336 337 329 314 303 240 194 183 189 159 136 138 154 163 158
322 324 327 328 332 330 328 327 324 325 325 324 321 318 317 315 317 318 320 318 318 322 326 332 328 326 331 336 340 342 345 353 121 135 121 94 106 252 255 186 177 168 162 170 179 179 179 178 172 175 180 180 182 179 189 187 197 224 233 240 241 71 42 63 68 14 338 328 323 319 324 315 321 330 323 324 316 288 221 188 187 197 177 160 157 167 171 164
318 319 322 323 326 326 327 327 324 325 322 320 318 316 317 314 313 313 313 312 313 317 322 324 323 321 326 332 335 342 339 323 165 168 160 69 17 304 230 172 167 160 160 169 179 185 183 178 175 178 187 185 175 184 194 183 193 216 226 252 343 78 243 144 141 315 317 318 313 311 311 306 325 322 307 314 308 272 151 187 212 205 185 172 165 176 181 172
316 317 319 319 320 321 325 325 323 321 318 318 316 315 315 313 313 311 310 310 311 314 316 317 318 317 323 328 331 341 330 290 152 181 211 56 5 359 165 158 158 161 161 165 171 178 174 172 175 180 197 187 168 187 198 192 207 228 226 249 302 257 258 160 259 302 308 304 301 300 306 317 321 307 300 307 301 330 38 346 257 212 190 180 173 180 186 180
317 317 316 316 315 317 318 319 319 317 317 319 318 317 314 312 312 310 311 309 309 309 310 311 311 313 321 324 328 337 318 297 150 252 253 246 340 77 140 148 155 161 156 161 165 170 169 170 178 185 200 194 181 193 194 193 211 238 226 229 237 251 265 273 282 291 294 293 294 297 308 318 307 298 306 304 293 305 322 308 276 225 196 187 178 180 188 188
318 316 314 314 313 314 314 313 313 314 317 318 318 316 313 312 309 309 309 306 306 305 306 308 306 309 316 322 330 323 284 292 298 272 263 239 212 115 127 135 151 154 153 163 166 170 169 175 187 191 200 197 192 196 190 196 210 235 237 216 231 248 258 269 280 281 285 287 291 295 300 301 294 300 312 298 291 298 297 282 256 221 191 187 181 184 192 193
319 316 314 314 313 313 312 310 311 312 314 315 315 312 309 307 305 307 307 302 302 301 303 305 304 306 310 324 330 297 256 256 283 279 263 195 168 133 127 131 145 147 158 172 169 176 174 183 193 193 211 202 191 193 188 203 213 228 243 237 239 247 255 267 272 274 281 282 287 288 287 286 287 303 299 287 291 306 296 269 223 197 184 185 186 189 194 194
318 318 316 314 314 314 313 312 312 312 313 312 310 308 306 303 302 305 303 300 299 299 302 302 303 303 309 330 312 284 231 209 271 283 150 158 159 145 131 128 139 142 165 178 175 185 181 191 196 195 233 204 186 193 188 211 215 216 236 246 252 256 260 268 269 274 278 276 282 281 279 278 287 305 286 272 301 327 284 226 193 185 185 187 187 190 194 193
318 318 316 316 317 316 316 315 315 315 312 309 307 305 303 301 301 303 301 299 295 296 299 299 304 303 311 327 289 274 166 239 282 165 145 154 157 146 134 121 129 143 166 175 180 188 188 201 194 196 260 206 192 194 190 216 246 188 236 251 260 265 265 268 269 273 275 272 269 268 276 278 282 288 261 150 54 323 245 198 193 189 189 190 184 187 193 191
317 319 319 319 319 319 319 318 318 317 314 310 307 303 300 299 299 300 299 296 294 295 297 298 302 301 308 302 270 264 267 268 165 136 139 149 152 142 138 125 124 146 160 166 181 187 195 204 183 189 217 178 182 189 197 220 269 241 251 260 254 257 257 255 260 265 266 267 261 261 274 272 265 260 248 351 15 300 236 209 198 196 193 184 178 181 189 185
318 321 323 322 321 322 322 321 321 319 317 312 307 302 298 297 296 297 296 293 294 295 296 298 298 299 307 286 259 254 261 245 182 162 147 149 151 148 152 139 131 154 159 164 188 191 201 193 187 198 195 165 174 176 198 213 246 248 252 263 250 246 248 239 243 260 260 262 264 268 270 251 235 237 235 335 309 269 236 224 207 209 195 176 172 172 177 172
319 322 324 325 324 324 325 324 323 321 318 312 306 302 297 296 297 296 294 293 294 295 296 297 295 298 303 278 255 245 231 210 185 180 176 163 156 161 168 155 148 161 160 160 175 187 197 183 193 210 221 205 188 120 163 197 232 246 233 251 257 245 236 206 212 249 244 247 250 249 260 235 207 217 214 58 267 241 228 225 216 216 196 176 171 159 164 172
319 322 324 325 324 325 326 325 324 322 317 310 305 302 300 300 300 297 294 293 293 293 292 290 290 294 282 265 267 260 238 229 217 207 208 193 182 190 182 168 163 161 154 151 159 175 185 181 194 212 214 225 196 142 190 195 216 238 225 230 246 248 185 134 156 241 223 164 203 226 244 241 191 175 116 57 226 227 229 223 217 219 201 183 167 153 167 181
318 321 323 322 322 323 324 324 323 321 314 309 306 305 305 305 303 300 294 291 289 288 288 287 288 285 267 265 271 269 242 234 231 219 219 208 198 205 198 189 176 162 153 149 162 168 174 177 189 201 194 206 201 196 212 203 203 221 235 220 212 234 167 136 159 230 291 92 179 223 240 245 209 141 102 76 188 224 235 227 222 223 206 188 159 154 174 181
317 319 321 320 320 320 321 323 320 317 313 308 307 308 310 310 309 302 294 291 287 286 289 286 282 275 275 260 241 254 186 182 186 180 201 203 198 201 201 196 173 162 158 156 162 152 169 177 190 212 194 192 208 213 218 214 209 208 233 240 199 215 212 160 163 163 311 20 184 230 261 258 213 140 137 124 221 229 238 234 229 228 212 194 162 157 175 178
315 317 318 316 316 317 319 320 316 314 309 307 310 312 316 315 310 304 298 292 287 289 287 270 295 295 264 224 193 183 140 143 140 134 157 185 192 195 187 181 165 158 153 155 156 138 168 180 190 213 208 211 214 218 223 222 219 197 213 243 229 230 249 200 155 150 224 265 226 236 258 268 263 209 199 213 239 234 243 242 233 231 217 198 173 165 177 180
314 315 315 314 314 315 316 317 313 310 307 307 311 317 320 314 309 302 294 290 289 297 284 235 196 282 241 207 196 160 147 148 144 146 152 170 184 187 179 170 157 153 153 158 163 160 174 186 200 208 204 214 212 211 222 235 248 215 204 233 234 225 236 241 190 130 226 266 258 252 248 257 263 251 226 215 233 240 244 249 245 237 220 201 186 177 183 187
312 313 312 311 311 314 314 312 309 305 305 307 316 324 322 317 308 295 286 282 242 249 290 206 198 269 2 133 164 158 160 162 150 164 186 182 178 173 172 169 161 165 172 173 171 173 182 186 203 216 206 206 208 215 229 283 346 278 233 255 261 234 230 238 253 323 300 281 265 259 257 256 259 255 236 211 218 242 248 250 251 242 223 207 196 186 190 194
311 310 309 309 310 314 310 307 306 302 303 310 328 331 321 318 298 271 294 274 250 263 287 260 240 269 296 199 198 191 184 182 177 180 193 187 171 166 170 169 170 184 197 188 162 169 195 203 202 217 220 213 209 218 243 295 316 282 265 259 260 255 254 190 215 268 286 282 268 258 261 263 263 262 252 227 210 238 250 248 247 242 228 214 203 193 193 196
308 307 307 306 309 312 305 304 303 295 300 306 326 320 319 331 302 331 341 286 263 271 276 265 256 262 259 238 209 187 184 202 203 185 193 182 168 171 174 173 182 196 200 182 144 153 199 221 218 220 227 220 206 208 234 261 251 256 259 260 254 254 260 158 230 271 234 259 267 261 262 262 260 261 256 240 223 238 248 249 248 241 233 223 208 197 194 196
306 306 305 304 308 309 301 302 298 286 292 284 244 244 283 295 279 327 337 295 280 276 268 263 256 252 247 240 228 213 215 233 208 186 189 178 178 185 175 181 201 190 176 172 156 169 203 228 229 215 197 186 191 199 213 227 241 246 249 258 257 261 277 210 198 200 182 244 277 277 273 268 265 262 257 247 238 243 246 249 252 245 238 228 214 201 194 194
304 303 302 304 307 307 300 299 294 280 275 252 217 205 236 255 276 331 332 290 289 278 259 250 242 247 245 243 238 224 223 233 218 196 187 177 188 198 179 187 208 188 175 189 200 203 204 226 221 189 167 186 190 192 207 218 230 236 240 252 252 254 278 236 174 169 216 263 282 288 284 275 268 259 255 249 244 247 246 245 249 247 240 230 220 207 198 195
302 300 303 304 305 310 303 297 295 279 256 234 223 212 229 255 290 340 321 274 282 268 246 233 227 244 232 238 232 211 211 220 220 200 187 183 186 193 191 196 203 199 195 202 213 225 222 126 171 181 184 199 199 192 208 226 232 232 235 249 263 268 273 272 258 268 278 255 247 268 274 262 254 245 244 237 232 240 240 232 232 236 236 232 224 212 205 200
300 299 304 303 306 314 304 302 296 261 236 238 235 221 228 255 304 340 298 263 253 192 201 178 159 214 205 205 190 192 205 218 220 198 183 190 188 180 194 200 202 210 208 205 212 234 232 118 152 199 196 205 211 206 213 226 247 241 223 236 259 271 272 272 271 275 280 249 203 224 262 256 237 233 237 223 212 222 220 217 228 230 228 226 222 214 207 202
297 301 305 303 307 313 310 313 275 221 220 250 230 215 224 252 315 348 288 257 206 151 168 161 143 113 126 172 162 174 202 206 208 197 184 195 196 187 191 187 203 231 212 200 210 244 226 147 177 209 197 207 219 223 219 217 247 255 203 217 246 262 268 268 257 233 262 278 156 197 264 274 247 224 218 212 212 216 207 212 236 237 232 229 224 217 208 202
298 302 304 304 306 309 310 275 235 218 246 241 216 207 217 244 297 325 261 239 179 130 147 134 113 62 48 169 174 181 182 131 165 187 190 196 192 197 211 183 196 229 182 177 209 221 204 186 194 204 200 212 218 223 210 203 240 255 112 187 240 256 266 250 238 229 259 309 182 209 245 270 266 238 206 211 227 227 212 204 239 257 257 246 235 225 213 207
300 302 304 302 302 307 304 272 244 228 231 222 204 202 207 231 272 261 254 237 141 119 123 117 120 51 48 150 193 209 315 74 164 175 179 191 187 195 220 206 201 199 167 185 219 157 182 202 201 202 214 222 223 230 203 198 239 253 106 204 262 279 276 244 231 230 246 284 240 218 217 244 262 239 201 209 230 233 211 162 46 349 300 268 244 230 216 210
300 302 301 296 299 306 302 283 233 216 222 213 200 202 200 216 243 232 252 258 153 140 89 115 160 167 61 164 203 223 252 287 260 144 160 184 190 197 228 224 214 195 176 206 242 130 151 209 212 211 221 224 229 236 218 208 233 252 155 235 257 256 253 234 232 235 215 241 254 226 199 231 263 241 215 211 226 242 209 83 37 17 344 285 242 231 215 209
300 303 297 294 301 306 306 296 228 211 209 205 198 187 173 191 231 224 222 234 156 128 115 150 160 229 287 231 197 207 222 240 96 140 164 177 187 200 234 224 213 198 181 213 242 166 116 130 215 222 225 232 239 234 219 221 229 231 214 226 226 214 215 214 225 242 224 231 249 233 204 234 266 256 245 215 213 330 6 14 11 8 352 316 227 220 207 199
301 298 290 292 299 301 319 348 210 197 190 197 184 166 172 191 245 237 187 158 279 122 139 169 160 305 304 287 191 180 200 210 156 157 169 171 183 196 200 191 197 203 195 211 229 205 172 179 196 214 218 231 251 210 192 220 225 227 234 231 222 204 197 210 205 212 237 239 240 211 208 232 253 260 265 92 71 9 2 2 3 354 340 329 190 186 180 173
300 290 284 288 289 286 244 171 185 180 174 176 168 173 192 203 227 230 150 160 251 73 82 36 343 330 316 282 211 175 189 191 176 175 177 179 183 190 196 191 180 196 207 204 207 202 203 214 212 209 209 214 233 209 174 194 211 221 232 229 229 215 197 218 212 205 233 232 138 145 209 233 248 265 51 85 56 22 23 18 9 357 347 359 155 154 158 156
298 284 279 280 280 263 199 185 183 177 167 163 170 188 219 227 213 220 202 184 76 32 15 328 316 316 291 255 177 162 191 173 177 190 187 188 192 191 201 206 197 203 221 206 202 203 207 211 209 211 206 204 222 222 182 186 200 212 220 219 227 227 214 226 222 219 234 214 129 157 226 249 249 265 56 57 41 31 32 34 31 27 34 70 125 136 144 151
292 280 275 271 262 191 202 194 179 178 168 166 181 192 215 226 196 76 237 103 44 357 324 323 309 293 261 259 60 151 207 161 169 190 186 189 199 194 197 208 207 212 225 205 209 220 222 214 198 205 199 187 204 223 223 214 201 206 220 228 236 242 237 242 243 246 248 214 135 159 206 256 254 125 61 54 52 41 39 51 51 48 53 66 96 118 125 128
284 275 260 223 196 193 221 201 181 175 168 172 196 199 206 216 183 153 206 47 35 330 312 316 297 267 199 149 68 339 268 165 177 193 187 186 197 199 196 198 202 210 217 205 199 213 233 238 175 181 175 176 195 212 223 238 224 197 214 233 239 246 246 255 289 313 294 266 202 182 222 269 239 109 89 83 70 54 53 59 59 58 63 68 77 96 108 114
261 228 147 148 135 31 211 185 176 170 169 185 207 203 208 257 25 106 44 15 5 339 315 272 251 262 201 162 145 131 176 209 191 194 188 185 193 197 196 190 194 206 213 209 193 201 230 228 145 161 182 198 209 205 205 225 230 179 208 226 228 254 262 255 213 113 261 264 244 201 246 259 193 136 104 97 80 65 64 66 68 67 69 73 76 88 103 114
174 146 128 122 107 72 93 154 165 165 174 205 215 200 221 40 27 29 43 2 325 334 309 270 168 299 242 182 148 115 159 197 193 203 197 186 190 196 201 193 189 206 217 224 227 221 239 223 157 178 193 187 204 223 209 222 229 198 212 223 195 231 256 253 244 222 230 252 245 218 251 260 237 198 100 95 81 78 75 71 76 73 69 72 74 83 96 104
153 142 134 129 114 87 89 129 151 162 182 216 207 171 281 153 80 16 28 349 308 291 288 278 50 329 279 217 145 74 318 212 194 209 205 188 184 272 225 202 187 211 228 236 234 211 242 236 176 180 194 162 169 214 216 212 223 234 268 279 236 230 228 220 234 247 247 253 253 234 243 257 260 218 111 109 94 94 93 83 81 77 78 80 78 84 96 107
146 146 144 144 130 101 89 113 141 170 198 214 196 161 199 179 146 192 293 319 278 270 279 287 335 290 298 309 330 59 332 267 199 209 215 200 191 292 303 219 181 208 233 239 234 206 226 244 197 168 175 163 172 207 213 193 204 228 256 257 244 255 248 226 231 245 249 255 257 247 238 239 359 45 96 99 87 96 104 101 94 84 87 92 92 93 98 109
156 163 151 152 149 113 87 113 159 192 202 210 213 151 155 172 169 195 246 280 258 263 293 312 260 255 323 320 321 22 332 314 226 224 224 193 185 182 33 2 271 198 212 227 232 223 214 235 226 168 162 185 196 208 227 213 199 209 222 225 222 227 236 243 249 245 253 264 257 253 254 184 52 32 53 71 75 93 99 100 106 110 104 91 89 90 81 93
171 181 143 158 164 120 101 159 176 202 197 161 161 137 140 292 211 189 197 239 258 268 295 296 276 285 317 300 312 356 314 279 234 235 227 195 196 182 82 14 320 307 193 213 217 216 210 221 233 206 188 209 191 111 44 312 256 231 230 227 226 227 226 237 239 226 238 264 267 272 272 93 65 22 42 65 55 79 99 108 105 95 81 70 72 72 69 79
188 182 140 164 166 127 219 209 142 199 212 141 102 113 102 327 271 205 183 210 240 238 245 276 273 276 297 295 324 345 314 274 229 206 239 174 87 48 37 4 304 256 232 219 196 190 256 242 237 230 229 221 118 99 90 33 328 255 246 246 247 240 229 236 241 226 223 237 254 272 268 96 70 35 63 71 46 51 69 98 98 78 61 58 60 57 57 64
186 139 138 166 163 145 247 192 134 178 156 97 64 98 106 288 233 210 195 201 223 222 221 249 261 262 286 346 323 324 326 300 286 120 240 108 73 44 26 12 285 231 236 227 152 102 218 245 239 232 233 209 131 130 147 174 216 221 213 236 267 256 244 252 266 275 248 232 229 249 249 129 86 81 85 88 77 64 60 71 84 82 68 56 49 44 44 52
152 123 137 167 164 175 255 187 142 143 107 110 133 129 133 237 281 267 219 186 218 224 230 242 253 275 298 342 312 313 332 302 235 65 14 73 76 49 29 24 25 116 352 322 186 170 198 231 229 226 222 205 186 185 187 198 217 215 135 80 316 287 262 261 269 267 255 244 239 250 253 103 118 139 111 104 97 80 64 58 62 67 61 47 39 39 41 51
148 126 137 162 156 146 342 30 36 113 117 127 119 105 140 156 84 336 295 76 46 295 268 260 280 295 293 290 277 283 323 307 300 13 353 57 93 76 32 28 44 47 39 30 15 204 204 234 223 237 232 211 206 209 205 217 210 161 100 68 15 331 260 255 253 237 241 239 235 250 256 124 143 150 133 121 104 89 69 55 54 53 49 43 42 42 46 53
170 150 146 161 168 164 105 80 351 139 132 138 122 101 162 152 110 75 260 88 78 49 341 357 309 271 275 289 267 247 287 304 305 328 340 12 86 74 28 27 37 32 43 49 32 234 208 193 213 243 261 249 258 20 353 326 258 159 96 67 33 4 291 264 252 242 265 253 230 247 215 142 145 147 142 122 91 87 72 57 55 50 47 47 48 50 52 52
197 168 156 163 171 172 147 145 170 118 122 166 148 103 127 152 135 142 210 18 73 80 332 26 8 273 284 312 275 257 304 278 256 327 354 357 20 69 43 48 33 18 35 47 24 358 230 217 202 218 248 275 17 33 13 358 1 44 45 45 31 15 340 261 252 314 318 274 237 328 352 132 133 123 123 109 89 84 71 60 58 54 53 56 57 60 57 49
203 136 149 173 176 164 144 140 129 110 113 119 116 118 122 133 149 153 147 128 107 70 248 124 55 34 26 352 288 259 279 248 136 37 12 5 3 353 101 97 65 28 37 63 38 17 275 251 193 197 216 164 80 79 54 41 51 49 37 29 24 22 26 34 35 12 346 317 66 12 13 64 83 78 78 79 79 80 74 69 69 66 64 66 66 63 55 47
159 120 132 162 147 89 93 108 131 131 114 99 116 123 114 101 106 109 108 183 159 56 343 174 64 40 36 357 300 274 307 287 74 53 24 7 9 352 9 113 73 29 30 71 66 35 317 267 190 189 179 119 109 127 127 122 89 63 41 25 20 23 36 44 35 12 11 51 74 85 76 61 50 56 71 78 84 87 83 77 75 70 66 70 72 65 57 52
173 146 137 140 113 103 107 121 151 143 125 184 154 113 106 73 77 82 61 233 181 98 17 18 57 41 28 358 318 70 52 15 35 45 12 355 16 19 17 75 25 14 26 46 56 44 13 276 194 195 183 140 132 138 135 129 105 82 58 35 25 26 35 38 24 4 3 58 72 104 104 73 52 63 80 88 91 89 83 73 65 61 61 70 72 69 65 61
180 158 155 152 122 122 139 142 173 170 139 166 150 117 142 75 54 64 95 63 6 47 40 14 22 37 41 345 349 75 62 13 347 4 353 342 345 350 357 353 326 347 41 44 21 44 41 338 261 236 221 179 155 150 132 116 106 88 58 32 20 23 19 10 27 24 3 358 358 187 132 93 98 90 84 86 84 81 76 67 60 59 60 68 72 71 70 66
171 159 166 171 143 161 183 157 182 200 114 91 83 109 125 72 53 24 131 122 149 40 36 4 340 308 237 168 80 46 12 323 309 307 313 318 319 313 304 306 304 300 31 69 102 116 105 138 249 270 247 184 160 154 142 138 148 113 47 13 357 10 3 346 34 35 10 349 322 296 55 77 124 124 96 86 79 73 68 60 56 61 62 66 71 70 71 69
Height
1513 1512 1512 1511 1511 1511 1510 1510 1509 1509 1509 1509 1508 1508 1507 1507 1506 1506 1506 1505 1505 1504 1504 1504 1503 1502 1502 1502 1501 1500 1500 1499 1498 1497 1497 1497 1497 1496 1496 1497 1498 1498 1499 1500 1502 1503 1505 1507 1508 1509 1510 1511 1511 1511 1512 1512 1512 1511 1507 1505 1501 1494 1492 1492 1494 1495 1495 1496 1496 1497 1497 1497 1495 1493 1494 1492 1491 1491 1492 1492 1493 1493 1495 1495 1496 1496 1496 1496
1512 1511 1511 1511 1510 1510 1510 1509 1509 1508 1508 1508 1507 1507 1506 1506 1505 1505 1505 1505 1504 1504 1504 1503 1503 1502 1501 1501 1500 1499 1498 1498 1497 1496 1496 1496 1496 1495 1495 1496 1497 1497 1499 1500 1501 1503 1505 1506 1507 1508 1509 1509 1509 1510 1510 1510 1511 1507 1503 1502 1496 1491 1493 1495 1496 1498 1498 1498 1498 1497 1497 1497 1495 1494 1494 1492 1489 1489 1490 1490 1492 1493 1494 1496 1497 1498 1497 1497
1511 1511 1510 1510 1509 1509 1509 1509 1508 1508 1507 1507 1507 1506 1506 1505 1505 1504 1504 1504 1503 1503 1503 1503 1502 1501 1501 1500 1499 1499 1498 1497 1496 1496 1496 1495 1495 1494 1494 1495 1496 1497 1498 1500 1502 1504 1505 1505 1506 1507 1507 1507 1508 1509 1508 1509 1509 1505 1502 1500 1494 1493 1496 1498 1499 1500 1500 1500 1499 1498 1497 1496 1495 1494 1494 1492 1488 1486 1486 1487 1490 1492 1494 1495 1497 1498 1498 1497
1510 1510 1509 1509 1509 1509 1508 1508 1507 1507 1506 1506 1506 1505 1505 1504 1504 1503 1503 1502 1502 1502 1502 1502 1501 1500 1500 1499 1499 1498 1497 1496 1495 1496 1495 1494 1494 1493 1493 1494 1495 1496 1498 1500 1502 1504 1505 1505 1506 1506 1506 1505 1507 1508 1507 1507 1506 1503 1502 1498 1494 1496 1498 1498 1500 1501 1501 1501 1500 1498 1497 1495 1494 1495 1493 1491 1489 1484 1484 1487 1488 1490 1492 1494 1496 1497 1498 1498
1510 1509 1508 1508 1508 1508 1507 1507 1507 1506 1506 1505 1505 1504 1504 1503 1502 1502 1501 1501 1501 1501 1501 1501 1500 1499 1499 1498 1498 1498 1496 1493 1493 1494 1494 1494 1494 1493 1493 1493 1495 1496 1497 1499 1501 1503 1504 1505 1505 1506 1505 1503 1505 1506 1504 1504 1504 1502 1500 1497 1497 1499 1498 1498 1500 1501 1501 1500 1500 1498 1496 1495 1494 1494 1492 1491 1490 1485 1485 1489 1489 1490 1492 1493 1494 1496 1498 1498
1509 1508 1508 1508 1508 1507 1507 1506 1506 1506 1505 1505 1504 1503 1502 1501 1501 1500 1500 1500 1499 1499 1499 1499 1499 1498 1498 1497 1497 1497 1496 1492 1492 1494 1493 1493 1493 1493 1493 1493 1494 1496 1498 1499 1501 1502 1503 1504 1504 1504 1503 1501 1502 1502 1502 1503 1504 1502 1498 1497 1499 1500 1498 1499 1500 1500 1500 1500 1499 1498 1496 1496 1495 1492 1490 1490 1489 1487 1488 1489 1489 1490 1491 1493 1493 1495 1496 1498
1508 1508 1508 1507 1507 1506 1506 1505 1505 1504 1504 1503 1503 1502 1501 1500 1500 1499 1499 1498 1498 1498 1498 1498 1498 1497 1497 1497 1496 1496 1495 1493 1492 1493 1492 1493 1493 1493 1493 1494 1495 1496 1498 1500 1501 1501 1502 1503 1502 1502 1501 1500 1500 1500 1501 1502 1503 1501 1497 1497 1499 1500 1500 1500 1500 1500 1500 1499 1498 1498 1497 1496 1494 1491 1490 1489 1488 1487 1488 1488 1489 1490 1491 1492 1492 1494 1496 1497
1507 1507 1507 1506 1506 1505 1505 1504 1503 1503 1502 1502 1501 1500 1499 1498 1498 1498 1498 1497 1497 1497 1497 1497 1496 1496 1496 1496 1496 1494 1493 1493 1492 1491 1491 1492 1492 1493 1493 1494 1495 1496 1498 1500 1500 1501 1501 1502 1501 1501 1499 1498 1499 1500 1501 1501 1501 1500 1497 1497 1499 1499 1499 1499 1499 1499 1499 1499 1498 1498 1496 1495 1493 1492 1490 1488 1487 1487 1488 1487 1488 1489 1490 1491 1492 1493 1495 1498
1506 1506 1506 1505 1504 1504 1503 1502 1502 1501 1501 1500 1500 1499 1498 1497 1497 1496 1496 1496 1496 1496 1495 1495 1495 1495 1495 1495 1496 1492 1490 1491 1491 1491 1491 1491 1492 1493 1493 1494 1495 1497 1499 1500 1500 1501 1501 1501 1500 1500 1498 1498 1499 1499 1500 1500 1497 1497 1497 1497 1498 1498 1498 1498 1498 1498 1498 1497 1497 1496 1495 1493 1492 1493 1489 1486 1487 1487 1487 1487 1487 1488 1489 1490 1491 1493 1495 1498
1505 1505 1505 1504 1503 1502 1501 1501 1500 1500 1499 1499 1498 1497 1497 1496 1495 1495 1495 1494 1494 1494 1494 1494 1494 1494 1494 1494 1494 1490 1488 1490 1490 1490 1491 1491 1492 1493 1494 1495 1496 1497 1499 1499 1500 1500 1500 1500 1500 1501 1500 1499 1499 1498 1499 1499 1495 1496 1497 1497 1498 1497 1497 1498 1497 1497 1497 1496 1496 1495 1493 1491 1492 1492 1488 1484 1487 1488 1487 1487 1487 1488 1488 1490 1491 1493 1496 1499
1504 1503 1503 1502 1502 1501 1500 1499 1499 1499 1498 1497 1497 1496 1495 1494 1494 1493 1493 1493 1493 1493 1493 1493 1493 1493 1493 1493 1493 1488 1488 1490 1489 1490 1490 1491 1492 1493 1494 1495 1495 1497 1499 1499 1499 1500 1500 1500 1501 1501 1500 1498 1499 1498 1498 1498 1497 1498 1498 1498 1497 1496 1496 1496 1496 1495 1495 1493 1493 1493 1492 1491 1491 1490 1486 1484 1487 1487 1487 1487 1487 1488 1488 1490 1492 1494 1497 1499
1503 1502 1501 1501 1500 1499 1498 1498 1498 1497 1496 1496 1495 1494 1493 1493 1492 1492 1492 1491 1491 1491 1491 1491 1491 1491 1492 1492 1490 1488 1487 1488 1489 1489 1490 1491 1492 1492 1493 1494 1495 1497 1498 1499 1499 1499 1499 1500 1501 1500 1498 1498 1497 1497 1498 1498 1498 1498 1499 1497 1494 1493 1493 1492 1493 1493 1493 1492 1491 1492 1492 1489 1487 1485 1482 1485 1487 1486 1487 1486 1487 1487 1488 1490 1492 1495 1497 1500
1501 1500 1500 1499 1498 1497 1497 1497 1496 1496 1495 1494 1493 1492 1492 1491 1491 1491 1490 1490 1490 1490 1490 1490 1490 1490 1491 1490 1487 1486 1487 1487 1488 1489 1489 1490 1492 1492 1493 1494 1495 1496 1497 1499 1499 1499 1499 1499 1500 1500 1499 1498 1496 1497 1497 1497 1499 1497 1496 1496 1493 1491 1489 1488 1491 1492 1491 1491 1491 1494 1493 1484 1479 1480 1481 1484 1486 1486 1486 1485 1486 1487 1488 1490 1492 1494 1497 1499
1500 1499 1498 1497 1496 1496 1496 1495 1495 1494 1494 1493 1491 1491 1490 1490 1490 1489 1489 1488 1488 1489 1488 1488 1489 1489 1490 1488 1484 1484 1485 1485 1486 1487 1488 1490 1491 1492 1493 1493 1494 1495 1496 1497 1498 1498 1498 1499 1500 1500 1500 1498 1496 1497 1497 1496 1498 1495 1494 1494 1492 1490 1486 1486 1490 1490 1488 1490 1490 1492 1492 1481 1474 1477 1481 1484 1485 1485 1484 1484 1485 1485 1487 1489 1492 1494 1495 1497
1498 1498 1497 1496 1495 1495 1494 1494 1494 1493 1492 1491 1490 1489 1488 1488 1488 1488 1488 1487 1487 1487 1487 1487 1487 1488 1488 1486 1483 1482 1482 1484 1485 1485 1487 1488 1490 1492 1493 1493 1494 1495 1496 1497 1497 1497 1498 1499 1500 1499 1499 1498 1498 1497 1494 1493 1493 1492 1495 1491 1488 1488 1485 1485 1489 1488 1487 1488 1488 1489 1488 1479 1473 1476 1481 1484 1484 1484 1483 1483 1484 1484 1486 1489 1492 1494 1494 1496
1497 1496 1495 1494 1494 1493 1493 1493 1493 1492 1491 1490 1489 1488 1487 1487 1487 1487 1486 1486 1486 1485 1486 1486 1486 1487 1486 1483 1481 1481 1481 1482 1483 1484 1485 1487 1489 1491 1492 1493 1494 1495 1496 1497 1497 1498 1499 1499 1500 1499 1497 1498 1497 1494 1491 1492 1491 1490 1492 1488 1485 1487 1484 1484 1486 1487 1488 1488 1487 1487 1485 1478 1473 1476 1481 1482 1483 1483 1482 1482 1483 1484 1485 1488 1491 1493 1494 1496
1496 1495 1494 1493 1493 1492 1492 1492 1491 1491 1490 1488 1488 1487 1486 1486 1485 1485 1484 1485 1484 1484 1485 1485 1485 1487 1484 1480 1481 1481 1481 1482 1483 1484 1484 1486 1488 1490 1491 1492 1494 1495 1496 1497 1497 1498 1499 1499 1499 1498 1497 1495 1492 1491 1494 1495 1490 1487 1489 1487 1485 1486 1485 1484 1485 1486 1488 1487 1487 1486 1485 1481 1475 1475 1478 1481 1482 1482 1481 1481 1481 1483 1485 1487 1490 1492 1493 1495
1494 1494 1493 1492 1492 1491 1491 1491 1490 1489 1488 1487 1487 1486 1486 1485 1484 1483 1483 1483 1484 1484 1484 1484 1486 1485 1480 1479 1480 1480 1481 1482 1482 1483 1484 1485 1486 1489 1491 1492 1493 1495 1496 1497 1497 1498 1498 1498 1497 1495 1494 1494 1491 1491 1493 1490 1485 1483 1487 1488 1485 1485 1486 1486 1484 1485 1487 1487 1487 1485 1485 1481 1476 1474 1475 1478 1480 1480 1480 1480 1481 1481 1483 1486 1488 1490 1492 1493
1493 1492 1492 1491 1490 1490 1490 1489 1489 1488 1488 1486 1486 1486 1485 1484 1483 1482 1482 1482 1483 1483 1480 1481 1482 1479 1476 1478 1480 1479 1480 1481 1482 1483 1484 1484 1485 1488 1490 1492 1493 1494 1494 1493 1494 1496 1496 1496 1497 1494 1491 1491 1490 1488 1485 1483 1484 1484 1485 1486 1485 1485 1484 1484 1485 1485 1486 1488 1487 1484 1483 1479 1476 1473 1473 1475 1479 1479 1479 1479 1480 1480 1481 1483 1486 1489 1490 1492
1492 1491 1490 1490 1489 1489 1488 1488 1488 1487 1487 1486 1485 1485 1484 1483 1481 1480 1481 1481 1481 1479 1477 1478 1479 1477 1477 1478 1479 1479 1480 1480 1481 1483 1483 1483 1485 1487 1490 1491 1492 1492 1491 1489 1491 1494 1494 1494 1493 1490 1486 1484 1485 1485 1484 1485 1488 1488 1487 1486 1485 1485 1482 1482 1486 1485 1485 1489 1486 1482 1481 1478 1476 1473 1471 1473 1476 1478 1477 1478 1478 1478 1480 1481 1484 1486 1488 1490
1490 1490 1489 1489 1488 1488 1487 1487 1487 1486 1486 1485 1485 1485 1485 1484 1481 1480 1481 1479 1477 1477 1476 1476 1477 1476 1477 1477 1478 1479 1479 1480 1481 1482 1482 1483 1485 1486 1487 1489 1489 1489 1487 1487 1490 1493 1494 1492 1487 1483 1481 1482 1484 1486 1488 1490 1491 1490 1489 1486 1484 1482 1479 1481 1486 1485 1485 1489 1484 1479 1481 1479 1475 1473 1470 1471 1474 1475 1475 1475 1476 1476 1478 1479 1481 1484 1485 1488
1489 1489 1488 1487 1487 1486 1486 1486 1486 1485 1485 1484 1485 1485 1485 1484 1483 1483 1483 1479 1475 1475 1474 1473 1474 1474 1474 1475 1476 1477 1479 1479 1479 1480 1480 1482 1484 1483 1484 1486 1485 1484 1485 1487 1490 1493 1494 1490 1483 1480 1483 1485 1487 1488 1490 1492 1492 1491 1489 1487 1485 1480 1478 1481 1484 1484 1485 1487 1483 1478 1480 1479 1473 1471 1468 1468 1470 1472 1473 1473 1473 1474 1475 1476 1478 1481 1483 1485
1488 1487 1487 1486 1485 1485 1485 1484 1485 1484 1484 1484 1484 1485 1484 1483 1483 1483 1484 1480 1474 1471 1472 1472 1472 1472 1472 1473 1474 1475 1477 1476 1476 1477 1478 1481 1482 1481 1482 1483 1481 1481 1484 1486 1487 1489 1490 1484 1479 1481 1486 1488 1489 1490 1491 1492 1491 1490 1488 1487 1484 1479 1482 1485 1483 1483 1484 1484 1483 1481 1481 1478 1472 1469 1467 1466 1467 1468 1469 1471 1471 1472 1473 1474 1475 1478 1481 1481
1486 1486 1485 1484 1484 1484 1483 1483 1484 1483 1483 1483 1483 1484 1483 1483 1483 1483 1483 1479 1472 1470 1470 1470 1470 1471 1471 1471 1471 1472 1474 1474 1474 1474 1476 1478 1480 1480 1480 1479 1479 1480 1482 1482 1483 1483 1481 1479 1479 1483 1486 1487 1489 1491 1491 1492 1489 1487 1486 1486 1483 1480 1484 1485 1480 1482 1482 1481 1482 1483 1484 1476 1466 1466 1463 1461 1464 1465 1466 1468 1470 1471 1471 1472 1474 1475 1478 1479
1485 1484 1484 1483 1483 1483 1482 1482 1482 1482 1482 1482 1482 1483 1482 1483 1483 1483 1483 1477 1470 1468 1469 1469 1469 1470 1470 1469 1469 1471 1472 1472 1472 1473 1474 1476 1477 1478 1477 1478 1478 1478 1479 1480 1482 1481 1478 1479 1483 1484 1485 1485 1487 1488 1489 1490 1488 1484 1483 1483 1483 1482 1483 1482 1480 1485 1486 1481 1477 1481 1487 1475 1457 1459 1461 1457 1460 1462 1463 1465 1466 1467 1469 1470 1471 1472 1475 1477
1484 1483 1482 1482 1482 1482 1482 1481 1481 1482 1482 1482 1482 1482 1482 1483 1482 1483 1482 1474 1465 1463 1466 1467 1468 1468 1468 1468 1469 1470 1471 1469 1469 1472 1473 1475 1476 1476 1476 1477 1477 1476 1475 1477 1481 1480 1477 1480 1482 1483 1485 1485 1486 1486 1485 1487 1488 1484 1479 1479 1482 1481 1481 1481 1482 1486 1486 1479 1475 1478 1485 1477 1460 1457 1459 1456 1459 1459 1460 1463 1463 1464 1466 1467 1468 1469 1471 1474
1482 1482 1481 1480 1480 1480 1481 1481 1481 1481 1482 1482 1481 1481 1483 1483 1482 1483 1481 1474 1466 1462 1463 1466 1466 1466 1467 1468 1468 1469 1468 1466 1467 1470 1472 1473 1475 1476 1475 1473 1475 1476 1474 1479 1484 1479 1476 1481 1483 1483 1485 1485 1485 1485 1482 1484 1488 1483 1477 1479 1480 1479 1481 1482 1482 1484 1479 1474 1476 1475 1477 1480 1470 1458 1454 1456 1459 1458 1458 1461 1463 1464 1465 1465 1466 1467 1469 1472
1481 1480 1479 1479 1479 1479 1479 1480 1480 1480 1481 1480 1480 1482 1482 1481 1483 1482 1479 1476 1468 1462 1462 1464 1466 1466 1466 1468 1468 1466 1465 1465 1465 1467 1470 1472 1473 1475 1474 1470 1472 1474 1474 1480 1482 1475 1474 1480 1481 1482 1485 1484 1482 1480 1479 1483 1486 1480 1477 1480 1480 1479 1481 1479 1479 1480 1476 1479 1481 1470 1471 1482 1473 1455 1452 1457 1458 1456 1456 1461 1464 1465 1465 1466 1466 1466 1468 1471
1480 1479 1478 1478 1477 1478 1478 1478 1479 1479 1479 1479 1480 1482 1481 1482 1483 1478 1476 1476 1467 1461 1463 1464 1464 1466 1466 1466 1467 1465 1465 1464 1464 1466 1469 1472 1472 1473 1472 1469 1469 1471 1474 1476 1474 1471 1474 1477 1478 1479 1481 1480 1478 1476 1476 1481 1482 1478 1479 1481 1480 1480 1479 1478 1479 1476 1477 1488 1484 1467 1468 1480 1472 1453 1450 1456 1457 1457 1458 1461 1464 1465 1466 1466 1466 1467 1468 1470
1478 1477 1477 1476 1476 1477 1477 1477 1477 1477 1478 1479 1480 1481 1481 1482 1480 1476 1478 1475 1463 1460 1464 1463 1463 1464 1463 1462 1462 1464 1465 1463 1464 1467 1469 1470 1471 1472 1471 1470 1469 1470 1473 1474 1471 1471 1475 1477 1477 1477 1476 1475 1474 1474 1476 1479 1479 1479 1480 1480 1478 1478 1477 1478 1477 1473 1483 1490 1477 1463 1465 1476 1475 1457 1447 1454 1460 1461 1461 1462 1464 1465 1466 1466 1467 1467 1468 1470
1476 1476 1475 1475 1475 1476 1476 1477 1477 1476 1478 1479 1479 1480 1481 1480 1475 1475 1477 1470 1461 1461 1462 1461 1462 1461 1461 1460 1459 1461 1462 1462 1463 1465 1467 1468 1470 1471 1470 1471 1472 1472 1474 1475 1472 1471 1474 1477 1476 1475 1475 1475 1474 1475 1477 1479 1479 1481 1480 1477 1478 1479 1479 1481 1479 1481 1491 1486 1470 1463 1464 1473 1478 1461 1448 1457 1463 1462 1463 1464 1465 1466 1466 1466 1467 1467 1468 1470
1475 1474 1474 1474 1474 1475 1475 1476 1476 1477 1477 1478 1479 1480 1479 1478 1476 1472 1467 1463 1464 1464 1461 1462 1462 1459 1460 1459 1458 1458 1458 1460 1461 1461 1462 1463 1465 1466 1466 1466 1468 1473 1476 1474 1471 1472 1472 1472 1471 1472 1473 1474 1475 1475 1477 1480 1480 1481 1479 1478 1482 1483 1486 1489 1485 1484 1486 1477 1468 1465 1466 1473 1471 1457 1452 1460 1463 1461 1463 1464 1465 1466 1466 1466 1466 1467 1469 1470
1473 1473 1473 1473 1473 1473 1474 1475 1475 1476 1477 1478 1480 1479 1476 1477 1475 1468 1461 1461 1466 1465 1463 1465 1462 1459 1459 1457 1456 1456 1455 1457 1458 1458 1458 1459 1461 1462 1461 1460 1461 1466 1470 1469 1471 1473 1472 1468 1466 1469 1470 1471 1473 1473 1475 1478 1478 1479 1477 1477 1481 1483 1491 1495 1485 1480 1479 1472 1468 1466 1470 1473 1464 1455 1457 1460 1461 1463 1463 1464 1466 1467 1467 1466 1466 1467 1469 1470
1472 1471 1471 1472 1472 1473 1473 1474 1475 1475 1477 1478 1478 1477 1478 1477 1471 1466 1464 1462 1465 1465 1464 1464 1462 1459 1457 1455 1455 1455 1455 1456 1456 1457 1457 1458 1460 1461 1460 1461 1459 1459 1463 1467 1470 1470 1473 1472 1465 1465 1465 1465 1469 1468 1467 1468 1469 1472 1468 1468 1473 1474 1482 1489 1481 1476 1475 1471 1470 1472 1474 1471 1463 1462 1461 1459 1462 1463 1463 1465 1467 1468 1468 1467 1467 1468 1470 1471
1471 1470 1471 1471 1471 1472 1472 1473 1474 1474 1476 1478 1476 1475 1477 1473 1466 1464 1466 1464 1465 1466 1463 1462 1461 1458 1455 1454 1455 1454 1454 1457 1456 1456 1456 1456 1458 1458 1457 1459 1459 1458 1461 1468 1469 1466 1469 1468 1458 1459 1462 1460 1464 1464 1463 1465 1467 1466 1463 1466 1471 1465 1465 1476 1478 1477 1476 1474 1473 1473 1470 1458 1455 1461 1459 1458 1463 1463 1466 1469 1469 1471 1470 1469 1470 1469 1471 1473
1470 1470 1470 1471 1471 1471 1471 1472 1473 1474 1476 1476 1474 1472 1471 1468 1465 1465 1467 1468 1468 1468 1464 1461 1459 1457 1454 1453 1454 1454 1454 1456 1455 1455 1454 1453 1453 1453 1453 1455 1456 1458 1459 1463 1466 1466 1469 1466 1456 1459 1463 1459 1461 1460 1460 1466 1467 1466 1467 1468 1464 1457 1458 1471 1479 1478 1480 1482 1475 1467 1465 1454 1450 1459 1459 1459 1464 1465 1469 1472 1471 1473 1472 1471 1473 1472 1473 1474
1469 1470 1470 1471 1471 1471 1471 1471 1472 1474 1475 1473 1472 1471 1468 1468 1469 1468 1469 1471 1470 1469 1466 1461 1460 1460 1458 1455 1454 1454 1454 1454 1454 1454 1454 1454 1454 1454 1453 1453 1455 1457 1456 1458 1462 1463 1466 1466 1457 1457 1461 1459 1461 1462 1460 1461 1463 1465 1468 1463 1456 1459 1461 1466 1476 1479 1479 1483 1473 1463 1467 1460 1454 1463 1464 1462 1468 1471 1471 1473 1474 1474 1474 1474 1475 1474 1475 1476
1469 1470 1471 1471 1471 1471 1471 1472 1472 1474 1475 1472 1471 1472 1470 1469 1471 1471 1471 1472 1471 1470 1467 1463 1462 1462 1460 1458 1456 1455 1455 1455 1455 1454 1453 1455 1457 1457 1455 1455 1456 1457 1456 1458 1462 1461 1463 1467 1460 1454 1458 1459 1459 1463 1463 1461 1460 1462 1463 1458 1458 1468 1470 1466 1474 1480 1479 1482 1475 1465 1465 1459 1455 1464 1468 1468 1472 1473 1473 1475 1475 1475 1475 1476 1476 1476 1476 1476
1469 1469 1470 1471 1471 1472 1472 1472 1473 1474 1474 1471 1469 1471 1471 1470 1472 1473 1473 1472 1471 1470 1467 1465 1465 1463 1461 1460 1458 1457 1456 1456 1454 1453 1454 1454 1458 1461 1458 1457 1458 1459 1459 1459 1460 1460 1462 1468 1465 1454 1455 1458 1458 1461 1462 1461 1461 1461 1462 1459 1457 1464 1467 1464 1465 1467 1472 1478 1476 1469 1465 1459 1460 1467 1469 1468 1470 1471 1473 1475 1475 1475 1476 1476 1476 1477 1477 1477
1468 1468 1469 1471 1471 1472 1472 1473 1473 1472 1471 1469 1468 1469 1471 1471 1472 1473 1473 1473 1471 1469 1467 1466 1466 1465 1463 1461 1459 1459 1457 1456 1454 1454 1454 1453 1458 1464 1461 1460 1460 1459 1461 1461 1460 1459 1461 1468 1468 1457 1454 1458 1459 1457 1456 1456 1458 1460 1463 1463 1460 1459 1460 1462 1460 1455 1460 1469 1471 1472 1470 1465 1468 1472 1470 1469 1470 1471 1473 1474 1475 1476 1476 1476 1477 1478 1479 1479
1468 1467 1468 1471 1471 1472 1472 1471 1471 1470 1468 1469 1469 1470 1471 1472 1471 1472 1473 1473 1472 1470 1469 1468 1467 1466 1466 1463 1461 1460 1458 1456 1454 1455 1455 1452 1456 1462 1462 1463 1463 1460 1461 1461 1460 1460 1462 1466 1466 1460 1457 1458 1456 1453 1454 1455 1454 1456 1458 1456 1457 1457 1458 1468 1469 1456 1454 1460 1462 1467 1470 1469 1473 1474 1473 1473 1472 1472 1473 1474 1476 1478 1477 1478 1479 1480 1480 1480
1466 1466 1468 1470 1471 1472 1471 1469 1470 1469 1467 1468 1470 1471 1473 1473 1472 1472 1472 1472 1472 1470 1470 1470 1468 1467 1467 1465 1463 1462 1460 1458 1455 1456 1457 1454 1456 1461 1462 1464 1464 1461 1461 1460 1459 1460 1462 1463 1464 1461 1457 1454 1453 1454 1457 1458 1456 1456 1456 1453 1453 1454 1456 1469 1473 1460 1455 1456 1457 1462 1466 1470 1476 1476 1476 1476 1475 1475 1475 1475 1478 1480 1480 1481 1481 1481 1481 1481
1466 1467 1469 1470 1471 1471 1470 1468 1469 1469 1468 1470 1472 1472 1473 1473 1472 1472 1471 1471 1471 1470 1470 1469 1468 1468 1467 1467 1466 1463 1462 1461 1458 1458 1458 1457 1460 1463 1463 1464 1464 1462 1460 1460 1460 1463 1465 1465 1464 1462 1456 1451 1453 1456 1457 1459 1458 1457 1457 1456 1457 1456 1454 1459 1461 1457 1458 1458 1460 1465 1467 1472 1480 1478 1477 1479 1478 1479 1479 1479 1481 1482 1482 1483 1483 1483 1482 1482
1466 1467 1469 1470 1471 1471 1469 1467 1468 1468 1470 1472 1472 1472 1473 1473 1473 1472 1471 1471 1470 1470 1470 1469 1468 1469 1468 1468 1468 1465 1464 1465 1462 1460 1459 1459 1463 1466 1465 1464 1463 1462 1463 1463 1463 1465 1467 1465 1464 1466 1465 1461 1460 1461 1461 1460 1458 1457 1459 1461 1462 1458 1456 1457 1455 1456 1461 1458 1458 1463 1466 1474 1482 1479 1478 1480 1480 1482 1483 1483 1484 1484 1485 1486 1485 1484 1484 1483
1466 1468 1470 1470 1471 1471 1470 1468 1468 1469 1471 1472 1472 1472 1473 1473 1473 1473 1472 1472 1472 1471 1470 1469 1469 1470 1468 1468 1468 1465 1465 1466 1465 1462 1461 1461 1463 1466 1467 1466 1465 1465 1466 1466 1465 1464 1466 1468 1468 1470 1469 1468 1471 1473 1471 1465 1458 1458 1462 1464 1465 1463 1461 1462 1458 1460 1464 1459 1455 1457 1463 1476 1483 1479 1478 1481 1481 1483 1486 1486 1487 1487 1488 1488 1486 1486 1485 1484
1464 1466 1469 1471 1471 1471 1471 1471 1470 1469 1470 1472 1473 1473 1472 1471 1473 1474 1473 1472 1472 1472 1471 1470 1470 1470 1468 1468 1468 1466 1465 1465 1465 1464 1464 1463 1463 1465 1467 1467 1468 1468 1467 1467 1466 1465 1466 1469 1471 1471 1469 1469 1473 1476 1473 1467 1461 1462 1465 1465 1467 1467 1466 1464 1461 1462 1464 1461 1458 1455 1456 1470 1480 1478 1478 1481 1483 1486 1488 1489 1490 1490 1490 1489 1488 1487 1487 1486
1463 1464 1466 1468 1470 1470 1470 1471 1470 1469 1470 1471 1473 1473 1472 1471 1472 1473 1473 1472 1472 1472 1472 1470 1470 1470 1470 1470 1469 1468 1466 1465 1465 1467 1467 1465 1463 1465 1468 1468 1469 1470 1469 1468 1467 1467 1470 1469 1467 1470 1471 1471 1473 1473 1470 1468 1467 1468 1470 1469 1469 1468 1467 1466 1466 1468 1467 1465 1465 1463 1460 1465 1473 1476 1479 1483 1486 1489 1490 1491 1492 1492 1492 1492 1490 1489 1488 1488
1463 1464 1466 1466 1466 1467 1468 1469 1470 1471 1471 1472 1473 1474 1473 1472 1472 1472 1472 1472 1472 1472 1471 1472 1472 1471 1471 1471 1470 1470 1469 1467 1468 1470 1469 1468 1466 1466 1466 1467 1470 1472 1470 1468 1469 1473 1477 1473 1466 1468 1472 1473 1474 1474 1472 1472 1473 1474 1475 1475 1473 1471 1470 1471 1473 1473 1470 1469 1471 1473 1472 1473 1476 1480 1484 1487 1489 1491 1493 1493 1494 1494 1494 1493 1492 1492 1490 1489
1463 1464 1467 1467 1466 1467 1469 1470 1471 1471 1472 1473 1473 1474 1473 1472 1472 1473 1472 1471 1472 1472 1472 1473 1473 1472 1472 1471 1470 1471 1471 1471 1473 1474 1472 1472 1472 1470 1468 1468 1469 1470 1469 1469 1471 1475 1478 1476 1470 1468 1471 1474 1476 1476 1475 1475 1477 1480 1482 1481 1478 1476 1476 1477 1479 1477 1472 1470 1471 1475 1481 1487 1490 1490 1491 1491 1492 1493 1494 1495 1495 1495 1496 1495 1495 1494 1493 1492
1464 1464 1466 1467 1468 1469 1471 1472 1471 1471 1472 1473 1473 1474 1474 1473 1473 1474 1473 1473 1473 1473 1473 1474 1473 1473 1473 1472 1471 1472 1474 1474 1475 1476 1476 1475 1474 1473 1473 1473 1472 1472 1472 1473 1475 1476 1478 1478 1473 1469 1472 1476 1478 1478 1477 1477 1479 1484 1489 1490 1486 1483 1482 1483 1485 1483 1476 1473 1474 1476 1482 1491 1495 1495 1494 1494 1495 1495 1496 1497 1497 1497 1498 1497 1497 1496 1495 1495
1464 1465 1466 1466 1468 1471 1472 1472 1471 1470 1471 1472 1473 1474 1475 1474 1474 1475 1474 1475 1475 1474 1474 1474 1474 1473 1473 1473 1473 1473 1475 1476 1476 1477 1477 1477 1476 1475 1475 1475 1474 1474 1474 1476 1479 1479 1479 1480 1477 1473 1474 1477 1478 1479 1481 1482 1482 1485 1493 1498 1496 1492 1490 1490 1490 1490 1486 1483 1481 1476 1479 1489 1496 1497 1497 1497 1497 1497 1498 1498 1499 1500 1500 1499 1498 1498 1498 1497
1465 1466 1466 1465 1468 1471 1471 1470 1470 1469 1470 1473 1474 1475 1475 1475 1475 1475 1476 1476 1475 1475 1475 1476 1475 1473 1472 1473 1475 1476 1477 1477 1477 1477 1477 1477 1477 1476 1476 1475 1474 1473 1473 1476 1480 1480 1480 1483 1483 1481 1481 1478 1475 1477 1483 1484 1483 1487 1498 1506 1504 1500 1497 1494 1491 1493 1495 1493 1488 1482 1484 1492 1496 1497 1498 1499 1499 1500 1501 1501 1502 1502 1502 1501 1500 1500 1500 1499